星链-4283 (STARLINK-4283 )

导读

STARLINK-4283是美国太空探索技术公司星链卫星互联网项目的一员,于2022年7月7日发射升空。星链计划通过部署近地轨道卫星星座,为全球提供高速低延迟宽带互联网服务,该卫星的入轨进一步扩充了星链星座的组网规模,助力全球网络覆盖的推进,服务地面偏远地区等网络薄弱区域的互联网接入需求。

基本信息
目录编号:
53016
目录名称:
STARLINK-4283
国际标识:
2022-076AG
轨道中心:
EARTH
卫星名称:
星链-4283
卫星全名:
星链-4283 (STARLINK-4283 )
卫星状态:
在轨 (已飞行1528 天)
发射日期:
2022-07-07 UTC
国别 :
美国 (US)
星等 :
--
该卫星已列入 空间交会检测服务 Space Conjunction Data Service (SCDS) ,当前飞行风险评估等级: 无高风险
轨道信息
数据来源 国际轨道数据
星历时间: 2026-09-12T05:05:19+0800
14小时前
查看轨道信息
半长轴: 6848.869km
偏心率: 0.0000987
轨道倾角: 53.160°
近地点辐角 58.903°
升交点赤经 316.961°
平近点角 301.207°
近地点: 470.056km
远地点: 471.408km
周期: 94.013分钟
每日圈数: 15.317028
详细信息
固有亮度:
5
最大亮度:
2.5
卫星平台:
Starlink v1.5
覆盖范围:
全球
运营商:
太空探索技术公司
运营商所在国:
美国
制造商(研发单位):
太空探索技术公司
制造商所在国:
美国
使用方式:
暂无
卫星简介
星链(Starlink)计划是由太空探索技术公司(SpaceX)提出的一个巨型低轨卫星互联网星座项目,计划在2019年至2024年间在太空搭建由约1.2万颗卫星组成的“星链”网络,其中1584颗将部署在地球上空550千米处的近地轨道,并从2020年开始工作。该卫星仍在工作。
2D轨道图
3D轨道图
轨道高度分析图
轨道倾角分析图
轨道综合分析图
查看轨道综合分析图
交会数据列表
事件ID 空间交会对象 最接近时刻(TCA) 交会距离 交会风险概率(CRP) 交会风险指数(CRI) 操作
CDM_260912-235105-301606-266322
2026-09-12T
23:51:42+0000
0.568 km
远距离
9.061686E-5 中风险 0.74
CDM_260912-184805-301606-485322
2026-09-12T
18:48:52+0000
2.533 km
极远距离
1.689355E-6 低风险 0.4
CDM_260912-083905-301606-933121
2026-09-12T
08:39:39+0000
2.920 km
极远距离
8.900258E-7 极低风险 0.34
与全量物体交会距离演化趋势
与全量物体交会风险概率演化趋势